When you browse on this site, cookies collect data to enhance your experience and personalize the content and advertising you see.
Visit our Privacy Policy to learn more. By continuing to use the site, you agree to this use of cookies and data.
  • In United Kingdom
  • List of Countries
  • For 7 days
  • Water Temperature
  • Satellite Maps
  • Weather Map
  • Weather Widgets
  • user-avatar
    Login

    Hourly Weather Abertillery

    Today, 23 April, Tuesday

    Time Temperature Precipitation Wind Pressure Humidity
    00:00 +12°C° 0 mm 1 mps 730 mmHg 86%
    01:00 +12°C° 0 mm 1 mps 729 mmHg 85%
    02:00 +11°C° 0 mm 1 mps 729 mmHg 84%
    03:00 +10°C° 0 mm 2 mps 728 mmHg 84%
    04:00 +10°C° 0 mm 2 mps 728 mmHg 85%
    05:00 +10°C° 0 mm 3 mps 728 mmHg 86%
    06:00 +10°C° 0 mm 3 mps 728 mmHg 87%
    07:00 +11°C° 0 mm 3 mps 728 mmHg 83%
    08:00 +13°C° 0 mm 3 mps 728 mmHg 78%
    09:00 +15°C° 0 mm 4 mps 728 mmHg 73%
    10:00 +17°C° 0 mm 4 mps 728 mmHg 71%
    11:00 +19°C° 0 mm 4 mps 727 mmHg 68%
    12:00 +20°C° 0 mm 4 mps 727 mmHg 66%
    13:00 +20°C° 0.8 mm 3 mps 727 mmHg 67%
    14:00 +20°C° 0.8 mm 3 mps 727 mmHg 69%
    15:00 +20°C° 0.8 mm 3 mps 726 mmHg 70%
    16:00 +19°C° 1.1 mm 3 mps 726 mmHg 75%
    17:00 +18°C° 1.1 mm 3 mps 726 mmHg 80%
    18:00 +17°C° 1.1 mm 2 mps 726 mmHg 86%
    19:00 +16°C° 0.6 mm 2 mps 726 mmHg 87%
    20:00 +14°C° 0.6 mm 3 mps 726 mmHg 89%
    21:00 +13°C° 0.6 mm 3 mps 726 mmHg 91%
    22:00 +13°C° 0.1 mm 2 mps 725 mmHg 93%
    23:00 +12°C° 0.1 mm 2 mps 725 mmHg 94%

    Tomorrow, 24 April, Wednesday

    Time Temperature Precipitation Wind Pressure Humidity
    00:00 +10°C° 0.1 mm 2 mps 725 mmHg 95%
    01:00 +10°C° 0 mm 2 mps 724 mmHg 95%
    02:00 +9°C° 0 mm 2 mps 724 mmHg 96%
    03:00 +9°C° 0 mm 2 mps 723 mmHg 96%
    04:00 +9°C° 0 mm 2 mps 723 mmHg 96%
    05:00 +9°C° 0 mm 2 mps 723 mmHg 96%
    06:00 +9°C° 0 mm 3 mps 722 mmHg 96%
    07:00 +10°C° 0.3 mm 3 mps 722 mmHg 95%
    08:00 +10°C° 0.3 mm 3 mps 722 mmHg 94%
    09:00 +11°C° 0.3 mm 4 mps 722 mmHg 94%
    10:00 +10°C° 1.7 mm 5 mps 722 mmHg 93%
    11:00 +9°C° 1.7 mm 6 mps 722 mmHg 93%
    12:00 +8°C° 1.7 mm 7 mps 722 mmHg 93%
    13:00 +9°C° 0.1 mm 6 mps 723 mmHg 90%
    14:00 +9°C° 0.1 mm 6 mps 723 mmHg 87%
    15:00 +10°C° 0.1 mm 6 mps 724 mmHg 85%
    16:00 +9°C° 0.2 mm 5 mps 724 mmHg 85%
    17:00 +9°C° 0.2 mm 5 mps 724 mmHg 85%
    18:00 +10°C° 0.2 mm 4 mps 725 mmHg 85%
    19:00 +8°C° 0 mm 4 mps 725 mmHg 87%
    20:00 +7°C° 0 mm 4 mps 725 mmHg 89%
    21:00 +5°C° 0 mm 3 mps 725 mmHg 91%
    22:00 +5°C° 0 mm 3 mps 725 mmHg 92%
    23:00 +5°C° 0 mm 4 mps 725 mmHg 94%

    Day after tomorrow, 25 April, Thursday

    Time Temperature Precipitation Wind Pressure Humidity
    00:00 +5°C° 0 mm 4 mps 725 mmHg 95%
    01:00 +5°C° 0.6 mm 5 mps 724 mmHg 95%
    02:00 +5°C° 0.6 mm 6 mps 724 mmHg 96%
    03:00 +5°C° 0.6 mm 7 mps 723 mmHg 96%
    04:00 +5°C° 0.2 mm 6 mps 724 mmHg 94%
    05:00 +5°C° 0.2 mm 6 mps 724 mmHg 92%
    06:00 +6°C° 0.2 mm 5 mps 724 mmHg 91%
    07:00 +7°C° 0 mm 6 mps 725 mmHg 87%
    08:00 +8°C° 0 mm 6 mps 726 mmHg 83%
    09:00 +9°C° 0 mm 6 mps 726 mmHg 79%
    10:00 +9°C° 0.4 mm 6 mps 727 mmHg 77%
    11:00 +9°C° 0.4 mm 7 mps 728 mmHg 75%
    12:00 +10°C° 0.4 mm 7 mps 728 mmHg 73%
    13:00 +10°C° 0.4 mm 6 mps 729 mmHg 73%
    14:00 +10°C° 0.4 mm 6 mps 729 mmHg 73%
    15:00 +10°C° 0.4 mm 6 mps 729 mmHg 73%
    16:00 +9°C° 0.1 mm 5 mps 729 mmHg 75%
    17:00 +9°C° 0.1 mm 5 mps 730 mmHg 77%
    18:00 +8°C° 0.1 mm 4 mps 730 mmHg 80%
    19:00 +8°C° 0 mm 3 mps 730 mmHg 84%
    20:00 +7°C° 0 mm 3 mps 731 mmHg 87%
    21:00 +4°C° 0 mm 3 mps 731 mmHg 91%
    22:00 +5°C° 0 mm 2 mps 731 mmHg 92%
    23:00 +5°C° 0 mm 2 mps 731 mmHg 93%

    26 April, Friday

    Time Temperature Precipitation Wind Pressure Humidity
    00:00 +4°C° 0 mm 2 mps 731 mmHg 94%
    01:00 +4°C° 0 mm 2 mps 731 mmHg 94%
    02:00 +5°C° 0 mm 1 mps 731 mmHg 95%
    03:00 +4°C° 0 mm 1 mps 731 mmHg 95%
    04:00 +5°C° 0 mm 1 mps 731 mmHg 95%
    05:00 +5°C° 0 mm 1 mps 732 mmHg 95%
    06:00 +5°C° 0 mm 1 mps 732 mmHg 95%
    07:00 +7°C° 0 mm 1 mps 732 mmHg 89%
    08:00 +9°C° 0 mm 1 mps 733 mmHg 82%
    09:00 +11°C° 0 mm 1 mps 733 mmHg 76%
    10:00 +12°C° 0 mm 2 mps 734 mmHg 72%
    11:00 +12°C° 0 mm 3 mps 734 mmHg 68%
    12:00 +13°C° 0 mm 4 mps 734 mmHg 64%
    13:00 +12°C° 0.1 mm 5 mps 735 mmHg 66%
    14:00 +11°C° 0.1 mm 6 mps 735 mmHg 68%
    15:00 +11°C° 0.1 mm 7 mps 735 mmHg 70%
    16:00 +10°C° 0.1 mm 7 mps 736 mmHg 74%
    17:00 +9°C° 0.1 mm 7 mps 736 mmHg 79%
    18:00 +8°C° 0.1 mm 7 mps 737 mmHg 84%
    19:00 +7°C° 0 mm 6 mps 737 mmHg 84%
    20:00 +6°C° 0 mm 5 mps 738 mmHg 85%
    21:00 +5°C° 0 mm 5 mps 738 mmHg 86%
    22:00 +5°C° 0.2 mm 4 mps 738 mmHg 88%
    23:00 +5°C° 0.2 mm 4 mps 737 mmHg 90%

    27 April, Saturday

    Time Temperature Precipitation Wind Pressure Humidity
    00:00 +5°C° 0.2 mm 4 mps 737 mmHg 92%
    01:00 +5°C° 0.8 mm 4 mps 737 mmHg 92%
    02:00 +6°C° 0.8 mm 4 mps 736 mmHg 92%
    03:00 +7°C° 0.8 mm 4 mps 736 mmHg 93%
    04:00 +6°C° 0 mm 5 mps 736 mmHg 92%
    05:00 +4°C° 0 mm 7 mps 737 mmHg 91%
    06:00 +4°C° 0 mm 8 mps 738 mmHg 91%
    07:00 +4°C° 0 mm 8 mps 739 mmHg 87%
    08:00 +5°C° 0 mm 7 mps 740 mmHg 83%
    09:00 +6°C° 0 mm 7 mps 742 mmHg 79%
    10:00 +8°C° 0 mm 7 mps 743 mmHg 73%
    11:00 +9°C° 0 mm 7 mps 744 mmHg 68%
    12:00 +10°C° 0 mm 8 mps 745 mmHg 62%
    13:00 +10°C° 0 mm 7 mps 745 mmHg 61%
    14:00 +9°C° 0 mm 7 mps 746 mmHg 59%
    15:00 +9°C° 0 mm 7 mps 746 mmHg 58%
    16:00 +9°C° 0 mm 6 mps 746 mmHg 62%
    17:00 +8°C° 0 mm 5 mps 747 mmHg 66%
    18:00 +7°C° 0 mm 4 mps 747 mmHg 70%
    19:00 +6°C° 0 mm 4 mps 748 mmHg 75%
    20:00 +5°C° 0 mm 3 mps 748 mmHg 80%
    21:00 +4°C° 0 mm 3 mps 748 mmHg 85%
    22:00 +5°C° 0 mm 3 mps 748 mmHg 84%
    23:00 +5°C° 0 mm 3 mps 748 mmHg 83%

    28 April, Sunday

    Time Temperature Precipitation Wind Pressure Humidity
    00:00 +6°C° 0 mm 4 mps 748 mmHg 82%
    01:00 +6°C° 0 mm 4 mps 748 mmHg 85%
    02:00 +6°C° 0 mm 4 mps 748 mmHg 88%
    03:00 +6°C° 0 mm 5 mps 747 mmHg 90%
    04:00 +6°C° 0 mm 5 mps 747 mmHg 91%
    05:00 +7°C° 0 mm 5 mps 747 mmHg 91%
    06:00 +7°C° 0 mm 5 mps 746 mmHg 92%
    07:00 +8°C° 0.1 mm 5 mps 746 mmHg 91%
    08:00 +8°C° 0.1 mm 5 mps 746 mmHg 91%
    09:00 +9°C° 0.1 mm 5 mps 746 mmHg 91%
    10:00 +9°C° 0.2 mm 5 mps 746 mmHg 91%
    11:00 +9°C° 0.2 mm 5 mps 745 mmHg 92%
    12:00 +10°C° 0.2 mm 5 mps 745 mmHg 93%
    13:00 +10°C° 0.2 mm 5 mps 745 mmHg 93%
    14:00 +10°C° 0.2 mm 5 mps 744 mmHg 93%
    15:00 +10°C° 0.2 mm 6 mps 743 mmHg 94%
    16:00 +10°C° 0.4 mm 6 mps 743 mmHg 94%
    17:00 +10°C° 0.4 mm 6 mps 742 mmHg 94%
    18:00 +9°C° 0.4 mm 6 mps 742 mmHg 95%
    19:00 +9°C° 0.1 mm 6 mps 741 mmHg 95%
    20:00 +9°C° 0.1 mm 6 mps 741 mmHg 95%
    21:00 +9°C° 0.1 mm 7 mps 740 mmHg 94%
    22:00 +8°C° 1 mm 7 mps 740 mmHg 95%
    23:00 +8°C° 1 mm 6 mps 739 mmHg 95%
    Show more